This is the latest recevied weather packets stored in our database for station/object DB0SMU-12. If no packets are shown the sender has not sent any weather packets the latest 10 day(s).
| Time | Temp. | Humidity | Pressure | Rain* | Wind** | Luminosity | Snow |
|---|---|---|---|---|---|---|---|
| 1777536261 | 7.78° C | 38% | 1026.9 hPa | 0 mm | - | - | - |
| 1777536081 | 7.78° C | 37% | 1026.8 hPa | 0 mm | - | - | - |
| 1777535900 | 7.78° C | 38% | 1026.8 hPa | 0 mm | - | - | - |
| 1777535719 | 7.22° C | 38% | 1026.8 hPa | 0 mm | - | - | - |
| 1777535538 | 7.22° C | 38% | 1026.9 hPa | 0 mm | - | - | - |
| 1777535357 | 7.78° C | 38% | 1026.8 hPa | 0 mm | - | - | - |
| 1777535176 | 7.22° C | 38% | 1026.9 hPa | 0 mm | - | - | - |
| 1777534995 | 7.22° C | 38% | 1026.8 hPa | 0 mm | - | - | - |
| 1777534814 | 7.22° C | 39% | 1026.8 hPa | 0 mm | - | - | - |
| 1777534633 | 7.22° C | 38% | 1026.9 hPa | 0 mm | - | - | - |
| 1777534453 | 7.22° C | 38% | 1026.9 hPa | 0 mm | - | - | - |
| 1777534269 | 7.22° C | 39% | 1026.9 hPa | 0 mm | - | - | - |
| 1777534088 | 7.22° C | 38% | 1026.7 hPa | 0 mm | - | - | - |
| 1777533907 | 6.67° C | 38% | 1026.8 hPa | 0 mm | - | - | - |
| 1777533726 | 6.67° C | 39% | 1026.7 hPa | 0 mm | - | - | - |
| 1777533545 | 6.67° C | 39% | 1026.7 hPa | 0 mm | - | - | - |
| 1777533364 | 6.67° C | 40% | 1026.7 hPa | 0 mm | - | - | - |
| 1777533183 | 6.11° C | 39% | 1026.8 hPa | 0 mm | - | - | - |
| 1777533002 | 6.11° C | 39% | 1026.7 hPa | 0 mm | - | - | - |
| 1777532821 | 6.11° C | 39% | 1026.8 hPa | 0 mm | - | - | - |
| 1777532640 | 6.11° C | 39% | 1026.8 hPa | 0 mm | - | - | - |
| 1777532460 | 6.67° C | 39% | 1026.7 hPa | 0 mm | - | - | - |
| 1777532279 | 6.67° C | 40% | 1026.7 hPa | 0 mm | - | - | - |
| 1777532098 | 6.11° C | 40% | 1026.7 hPa | 0 mm | - | - | - |
| 1777531917 | 6.11° C | 40% | 1026.8 hPa | 0 mm | - | - | - |
* Rain latest hour (hover to see other rain measurements)
** Current wind speed in m/s (hover to see current wind gust speed)